Precipitable_Water
0.23 0.20 0.21 0.25 0.27 0.27 0.29 0.30 0.31 0.38 0.45 0.48 0.45 0.47 0.52 0.69 0.77 0.76 0.85 0.89 0.99 1.05 1.15 1.33 1.42 1.44 1.44 1.51 1.59 1.67 1.71 1.94 2.06 2.00 1.81 1.77 1.66 1.57 1.52 1.59 1.74 1.92 2.13 2.21
0.18 0.15 0.21 0.26 0.25 0.24 0.22 0.27 0.32 0.44 0.47 0.44 0.40 0.40 0.50 0.61 0.61 0.61 0.73 0.79 0.87 1.03 1.10 1.26 1.37 1.41 1.47 1.61 1.72 1.80 1.84 1.97 2.24 2.14 2.03 1.91 1.81 1.63 1.49 1.59 1.61 1.75 1.86 1.96
0.14 0.16 0.20 0.19 0.19 0.18 0.19 0.19 0.26 0.39 0.47 0.45 0.39 0.33 0.42 0.47 0.50 0.53 0.63 0.76 0.82 0.93 0.99 1.18 1.31 1.40 1.57 1.67 1.80 1.92 1.88 1.93 1.98 2.04 2.09 2.01 1.91 1.69 1.48 1.48 1.52 1.62 1.78 1.81
0.17 0.18 0.17 0.20 0.17 0.18 0.16 0.20 0.23 0.33 0.38 0.32 0.38 0.23 0.38 0.38 0.42 0.46 0.48 0.61 0.73 0.89 1.03 1.15 1.30 1.44 1.60 1.67 1.78 1.67 1.66 1.50 1.70 1.96 1.86 1.84 1.76 1.62 1.52 1.51 1.60 1.62 1.74 1.79
0.16 0.15 0.13 0.15 0.18 0.22 0.18 0.22 0.23 0.31 0.34 0.33 0.31 0.29 0.34 0.36 0.36 0.38 0.45 0.52 0.59 0.70 0.81 0.97 1.19 1.46 1.55 1.61 1.62 1.54 1.61 1.40 1.51 1.58 1.71 1.79 1.72 1.73 1.61 1.59 1.63 1.69 1.77 1.89
0.21 0.21 0.19 0.18 0.22 0.22 0.24 0.23 0.24 0.30 0.35 0.25 0.30 0.30 0.23 0.30 0.38 0.39 0.50 0.53 0.55 0.62 0.74 0.94 1.23 1.47 1.55 1.65 1.63 1.54 1.61 1.43 1.51 1.61 1.64 1.70 1.73 1.63 1.51 1.50 1.64 1.69 1.76 1.85
0.21 0.20 0.20 0.22 0.19 0.22 0.22 0.21 0.17 0.18 0.22 0.21 0.28 0.24 0.23 0.30 0.40 0.45 0.47 0.54 0.55 0.71 0.78 0.93 1.12 1.30 1.50 1.77 1.82 1.85 1.80 1.63 1.61 1.66 1.54 1.57 1.69 1.55 1.47 1.53 1.60 1.73 1.80 1.87
0.18 0.17 0.19 0.20 0.20 0.20 0.21 0.22 0.17 0.15 0.18 0.21 0.25 0.18 0.21 0.34 0.49 0.54 0.54 0.55 0.64 0.76 0.85 1.05 1.22 1.35 1.47 1.68 1.45 1.58 1.59 1.65 1.42 1.55 1.47 1.54 1.63 1.51 1.55 1.61 1.78 1.80 1.85 1.86
0.17 0.18 0.25 0.25 0.22 0.25 0.23 0.21 0.24 0.20 0.21 0.17 0.18 0.19 0.22 0.26 0.33 0.44 0.51 0.60 0.67 0.76 0.91 1.02 1.18 1.37 1.60 1.69 1.55 1.69 1.55 1.60 1.46 1.51 1.61 1.61 1.54 1.51 1.52 1.64 1.75 1.86 1.94 1.91
0.20 0.17 0.21 0.25 0.27 0.24 0.24 0.28 0.21 0.21 0.17 0.15 0.17 0.18 0.16 0.24 0.35 0.48 0.52 0.66 0.76 0.86 0.93 1.03 1.14 1.31 1.42 1.55 1.69 1.80 1.76 1.68 1.63 1.60 1.59 1.50 1.44 1.47 1.48 1.53 1.60 1.82 1.86 1.91
0.20 0.19 0.20 0.23 0.23 0.22 0.22 0.22 0.25 0.24 0.22 0.17 0.16 0.18 0.23 0.29 0.43 0.52 0.61 0.72 0.87 0.97 1.01 1.05 1.17 1.25 1.31 1.47 1.60 1.73 1.81 1.78 1.65 1.55 1.45 1.37 1.32 1.25 1.34 1.39 1.50 1.53 1.67 1.62
0.21 0.19 0.16 0.17 0.24 0.27 0.25 0.24 0.25 0.20 0.20 0.22 0.22 0.17 0.26 0.32 0.43 0.53 0.60 0.77 0.92 0.94 0.97 1.14 1.12 1.10 1.09 1.22 1.52 1.68 1.73 1.70 1.63 1.48 1.37 1.33 1.29 1.25 1.28 1.32 1.40 1.49 1.37 1.44
0.24 0.19 0.15 0.17 0.21 0.25 0.23 0.24 0.25 0.27 0.27 0.23 0.21 0.21 0.39 0.47 0.48 0.56 0.63 0.82 0.90 0.89 0.99 1.07 1.05 1.03 1.14 1.24 1.26 1.38 1.64 1.63 1.50 1.38 1.31 1.24 1.20 1.19 1.29 1.33 1.34 1.37 1.40 1.42
0.31 0.23 0.20 0.16 0.18 0.21 0.22 0.25 0.27 0.29 0.25 0.26 0.26 0.28 0.37 0.46 0.46 0.50 0.61 0.83 0.90 0.95 1.03 1.03 1.10 1.09 1.14 1.27 1.26 1.21 1.41 1.47 1.46 1.43 1.32 1.25 1.23 1.21 1.29 1.29 1.33 1.34 1.39 1.41
0.33 0.26 0.26 0.24 0.23 0.24 0.25 0.26 0.31 0.31 0.34 0.30 0.34 0.35 0.45 0.56 0.56 0.57 0.61 0.73 0.87 0.94 1.06 0.97 1.10 1.12 1.16 1.27 1.40 1.45 1.48 1.57 1.58 1.47 1.35 1.31 1.32 1.30 1.32 1.28 1.29 1.35 1.37 1.43
0.50 0.33 0.30 0.26 0.33 0.30 0.30 0.33 0.34 0.36 0.36 0.38 0.39 0.41 0.67 0.70 0.68 0.62 0.65 0.70 0.78 0.94 1.04 0.98 1.08 1.13 1.18 1.34 1.49 1.58 1.69 1.71 1.67 1.53 1.37 1.40 1.34 1.31 1.31 1.26 1.26 1.33 1.35 1.37
0.39 0.43 0.34 0.25 0.35 0.30 0.28 0.39 0.40 0.48 0.54 0.53 0.40 0.53 0.65 0.59 0.60 0.61 0.66 0.70 0.74 0.86 0.93 0.98 1.14 1.22 1.23 1.45 1.65 1.64 1.71 1.75 1.64 1.53 1.41 1.33 1.30 1.30 1.33 1.27 1.30 1.30 1.34 1.37
0.38 0.39 0.42 0.34 0.35 0.24 0.46 0.66 0.61 0.55 0.60 0.64 0.61 0.61 0.63 0.61 0.65 0.76 0.80 0.74 0.77 0.81 0.87 1.01 1.33 1.44 1.42 1.53 1.65 1.47 1.52 1.71 1.54 1.42 1.33 1.27 1.33 1.30 1.35 1.30 1.28 1.31 1.40 1.41
0.39 0.38 0.36 0.34 0.32 0.41 0.54 0.63 0.63 0.56 0.54 0.69 0.62 0.64 0.68 0.69 0.64 0.66 0.88 0.89 0.84 0.94 0.98 1.24 1.53 1.55 1.58 1.57 1.57 1.46 1.53 1.54 1.58 1.43 1.25 1.30 1.36 1.30 1.31 1.30 1.29 1.39 1.40 1.45
0.37 0.38 0.34 0.38 0.32 0.30 0.49 0.68 0.83 0.79 0.46 0.74 0.75 0.71 0.66 0.70 0.47 0.61 0.88 1.00 1.00 1.08 1.20 1.39 1.60 1.57 1.51 1.51 1.54 1.49 1.44 1.40 1.39 1.39 1.29 1.39 1.44 1.35 1.28 1.33 1.35 1.47 1.52 1.48
0.36 0.33 0.27 0.30 0.32 0.42 0.63 0.72 0.84 0.44 0.46 0.78 0.82 0.81 0.77 0.65 0.74 0.87 1.02 1.08 1.14 1.24 1.39 1.61 1.66 1.50 1.43 1.49 1.45 1.32 1.32 1.37 1.40 1.34 1.27 1.36 1.48 1.45 1.36 1.38 1.45 1.52 1.56 1.57
0.41 0.37 0.33 0.31 0.29 0.30 0.70 0.74 0.57 0.69 0.80 0.79 0.80 0.81 0.77 0.82 0.87 0.90 1.00 1.12 1.18 1.18 1.33 1.50 1.53 1.42 1.45 1.44 1.38 1.32 1.32 1.43 1.46 1.43 1.39 1.36 1.44 1.53 1.47 1.46 1.54 1.57 1.60 1.58
0.47 0.53 0.50 0.51 0.46 0.69 0.73 0.69 0.78 0.80 0.76 0.77 0.77 0.79 0.78 0.79 0.83 0.90 0.94 1.04 1.21 1.21 1.27 1.30 1.25 1.23 1.37 1.44 1.42 1.34 1.34 1.40 1.47 1.43 1.36 1.33 1.46 1.57 1.57 1.53 1.53 1.51 1.58 1.53
0.69 0.77 0.61 0.57 0.67 0.66 0.68 0.75 0.80 0.81 0.80 0.86 0.89 0.86 0.87 0.80 0.80 0.81 0.85 0.94 1.05 1.17 1.25 1.31 1.31 1.31 1.34 1.40 1.47 1.45 1.45 1.50 1.53 1.47 1.41 1.43 1.43 1.55 1.60 1.50 1.50 1.53 1.49 1.53
0.70 0.71 0.63 0.61 0.66 0.66 0.68 0.73 0.77 0.78 0.84 0.84 0.84 0.80 0.77 0.82 0.80 0.80 0.80 0.86 0.93 1.03 1.19 1.30 1.29 1.29 1.32 1.40 1.41 1.45 1.49 1.44 1.43 1.53 1.48 1.45 1.43 1.45 1.51 1.63 1.66 1.63 1.62 1.57
0.68 0.64 0.58 0.55 0.66 0.62 0.65 0.76 0.82 0.78 0.82 0.90 0.85 0.85 0.92 0.92 0.83 0.83 0.79 0.85 0.89 0.95 1.09 1.16 1.22 1.27 1.30 1.35 1.38 1.46 1.53 1.57 1.51 1.56 1.56 1.52 1.49 1.50 1.57 1.58 1.55 1.59 1.61 1.56
Wind_Speed
14 15 15 17 16 15 14 15 14 14 11 12 15 16 16 12 14 14 12 12 13 14 12 12 11 12 11 10 9 9 9 8 7 6 6 7 8 7 7 6 4 0 5 11
17 19 17 15 15 16 17 17 17 15 12 11 13 15 14 13 14 15 14 14 14 16 16 14 13 13 13 11 10 9 10 11 10 8 8 8 8 8 6 6 4 2 4 8
21 16 15 17 16 16 17 19 18 17 12 14 12 14 11 11 12 14 14 15 15 16 18 16 14 14 13 11 10 10 8 15 11 9 9 10 9 9 8 7 6 5 5 7
19 18 19 17 18 17 18 17 20 18 13 13 11 11 10 9 11 11 13 14 16 16 18 18 16 14 13 11 11 13 13 13 10 10 10 11 11 10 9 8 8 8 8 9
17 15 18 19 17 16 15 12 14 15 16 13 13 12 11 10 12 12 10 12 16 17 17 18 17 15 14 14 13 12 12 15 9 11 12 11 11 10 10 10 9 9 9 10
18 15 15 16 15 17 11 12 11 11 13 15 11 13 13 12 11 13 10 14 14 14 14 14 14 15 16 15 15 12 11 18 10 9 9 9 11 11 11 10 10 11 11 11
18 19 18 17 17 14 13 13 12 14 14 15 9 13 15 15 14 15 18 16 13 12 11 10 11 14 16 17 11 11 11 15 9 5 7 8 10 11 10 10 11 11 11 12
20 17 19 18 20 16 15 13 13 15 14 14 10 13 12 13 15 16 16 13 10 9 9 8 9 12 13 16 19 15 14 13 11 6 7 8 8 9 9 10 10 9 10 11
16 16 13 13 16 17 14 14 10 9 9 12 11 14 17 15 16 15 14 10 9 8 7 8 9 10 13 16 16 18 15 15 5 5 5 5 6 6 8 9 7 5 6 9
18 16 14 13 13 15 18 14 12 11 11 13 12 12 14 12 12 11 11 10 7 7 7 8 9 9 11 14 16 18 15 9 5 3 2 3 4 6 7 7 5 1 2 5
19 19 14 14 15 16 15 16 12 12 13 14 14 11 10 10 8 8 9 8 7 7 8 7 7 8 12 13 18 14 12 9 5 2 0 2 3 6 6 7 5 3 2 3
20 18 19 20 14 14 13 13 15 14 12 11 11 11 9 11 11 10 11 9 7 7 7 7 7 9 8 8 7 12 11 8 4 2 1 2 2 4 5 6 6 3 1 1
16 17 16 15 14 15 16 15 14 11 11 12 11 8 5 7 10 11 12 10 8 9 8 8 9 7 4 4 4 8 7 6 3 2 1 1 2 3 4 5 5 4 2 2
13 13 15 18 18 13 14 14 14 13 12 11 13 10 6 8 11 12 13 12 10 10 9 8 8 6 5 3 3 4 4 3 3 3 2 1 2 3 4 4 4 4 3 2
11 12 12 11 11 14 13 14 14 14 10 9 9 9 6 10 12 13 13 12 12 12 11 9 8 8 7 6 5 5 5 6 5 5 5 4 3 3 3 3 4 4 4 4
9 10 10 9 8 10 9 9 12 10 11 8 8 7 7 8 10 11 10 12 13 12 13 11 9 9 9 8 9 9 9 8 8 7 7 6 5 4 4 3 4 4 4 3
10 9 10 10 9 11 9 9 10 10 8 10 8 8 11 10 9 10 11 11 13 13 14 14 14 13 12 11 10 11 11 10 10 9 9 8 7 5 4 4 4 4 3 3
13 12 11 10 10 12 9 9 10 10 9 9 11 12 13 14 14 13 14 14 14 16 17 16 16 16 16 14 13 12 12 12 12 12 12 10 9 8 6 6 5 4 3 3
17 15 13 13 12 10 12 12 12 12 10 10 13 14 15 16 15 16 18 18 19 18 17 17 16 15 14 14 14 13 11 12 16 16 14 13 11 10 9 8 6 5 5 5
18 18 18 14 15 16 12 13 13 13 15 13 13 14 16 16 16 18 21 20 20 20 20 19 17 16 15 16 15 14 14 14 11 16 17 15 14 13 12 11 9 8 7 7
15 16 21 20 16 15 14 15 16 17 14 15 15 16 17 17 17 21 20 18 17 17 18 18 18 17 16 16 16 16 16 16 14 15 17 18 17 16 15 14 13 11 10 10
15 15 16 17 18 19 16 16 18 16 17 17 17 18 19 20 19 18 17 16 15 15 15 15 17 17 17 17 17 17 18 18 17 16 18 20 19 18 17 16 16 15 14 13
13 15 15 16 14 15 14 15 17 18 18 17 18 18 18 18 17 18 18 17 17 17 17 17 19 20 19 20 20 20 21 21 21 19 19 21 21 21 20 18 18 19 17 17
11 11 11 12 12 12 11 12 12 13 14 14 15 16 16 18 19 20 20 20 20 20 21 21 22 24 25 25 26 26 23 26 26 24 21 20 23 21 21 17 20 18 19 18
9 10 9 9 10 10 10 11 11 12 12 13 15 16 17 19 21 21 22 23 23 23 24 24 25 25 26 27 28 28 28 27 27 26 24 22 23 23 22 22 20 20 19 19
10 10 10 10 10 10 10 10 11 13 14 16 16 17 18 19 19 21 21 21 22 24 24 25 25 25 25 26 26 26 26 26 26 25 23 22 22 21 21 19 18 17 18 18
Wind_Direction
242 244 244 243 246 252 256 259 263 265 265 270 275 278 287 271 251 254 254 254 254 245 250 256 261 265 278 287 289 288 287 289 276 288 298 310 318 318 325 335 351 9 190 201
241 247 245 246 247 251 254 257 258 264 263 260 275 279 286 276 256 255 251 257 254 247 252 258 260 265 270 276 284 297 298 282 263 268 292 305 309 312 308 309 307 275 219 210
240 245 244 242 245 248 255 253 255 254 258 260 280 280 281 286 261 261 261 261 256 251 251 254 262 264 266 273 289 289 307 295 278 274 291 300 305 305 294 290 284 266 242 226
245 245 240 243 246 243 256 255 250 250 247 265 266 280 273 284 285 276 266 262 263 260 254 254 259 261 262 268 291 298 291 337 263 275 289 293 300 298 287 280 273 268 248 239
239 238 234 235 238 231 252 254 255 247 241 254 253 261 267 278 279 281 293 285 273 261 254 250 253 253 255 259 273 308 301 334 308 283 279 286 294 295 294 277 268 265 254 240
240 236 235 236 235 232 243 252 252 243 237 251 247 260 267 267 269 285 284 300 287 261 252 254 251 249 251 260 265 285 310 330 290 293 277 287 291 293 292 276 272 265 254 239
234 237 238 234 238 235 237 241 246 236 238 251 254 254 266 268 275 281 294 292 283 261 254 254 254 252 251 252 267 277 296 332 322 294 281 297 301 300 297 286 285 263 245 230
228 235 230 227 230 234 230 236 241 244 242 253 252 258 269 268 270 280 290 283 274 252 257 268 267 261 257 245 284 282 288 294 299 284 294 298 303 311 313 307 299 261 242 229
222 233 233 229 225 222 224 232 240 236 253 256 262 268 274 273 269 273 274 274 263 261 273 275 276 278 267 271 274 273 282 286 254 275 289 308 320 324 331 330 320 266 231 223
227 234 227 226 226 231 233 219 234 244 242 255 256 268 274 277 272 266 262 261 262 264 273 283 284 284 284 286 279 270 263 248 225 247 277 333 348 352 353 4 19 56 183 205
221 228 223 228 228 224 225 229 239 242 254 262 267 266 255 264 266 267 259 259 260 257 271 287 293 295 306 306 298 257 204 185 190 205 221 9 12 11 19 22 31 56 95 167
223 225 229 233 231 232 231 230 233 244 244 252 260 259 263 258 259 266 267 262 260 270 278 279 295 306 311 350 57 144 156 169 178 182 142 32 27 21 19 19 24 20 25 212
216 225 229 229 226 229 232 231 235 235 244 237 244 253 277 281 268 265 271 260 257 268 269 278 289 303 291 335 102 136 145 169 187 202 187 25 20 9 3 7 14 16 355 267
216 223 230 233 235 228 226 227 226 232 236 231 242 251 280 303 295 274 261 257 256 259 270 277 280 265 268 282 164 172 179 196 219 222 229 278 324 328 340 344 350 347 341 307
222 227 226 233 239 227 227 221 216 232 236 235 225 231 273 298 294 288 269 256 246 252 259 263 266 251 256 250 224 226 233 235 232 236 242 252 269 300 325 334 334 337 332 316
232 225 224 223 229 211 203 223 217 221 220 239 240 235 292 291 301 293 282 270 252 254 253 251 255 249 252 248 244 250 248 243 236 246 242 246 252 270 293 307 323 326 330 325
235 228 227 218 225 211 213 238 227 217 226 241 238 263 286 291 301 304 296 282 261 253 255 255 255 251 246 253 251 254 252 245 244 247 242 241 243 254 268 290 297 311 316 318
232 231 233 225 223 224 225 229 214 201 226 242 253 268 282 283 282 294 293 286 274 263 263 257 259 256 249 251 253 274 242 247 252 250 241 236 240 245 254 271 278 284 298 297
236 232 232 231 227 224 231 227 232 233 234 250 263 275 284 288 277 278 294 287 275 272 265 261 257 253 248 250 248 263 246 252 261 246 236 237 238 239 250 259 269 268 285 290
234 234 235 232 231 229 233 234 238 240 241 260 269 277 288 294 281 290 294 288 277 270 265 258 252 252 252 251 251 248 254 269 264 237 235 236 239 242 247 252 258 265 274 284
235 235 232 232 237 240 245 245 233 239 254 265 269 275 284 287 289 291 292 287 277 270 261 251 249 250 250 248 247 252 254 261 255 249 243 241 245 244 249 251 252 260 265 274
236 236 234 234 234 238 250 237 246 258 258 264 269 275 282 284 287 288 290 286 280 268 262 254 254 254 253 250 253 253 255 257 257 256 247 243 246 248 248 249 251 255 262 268
237 240 236 239 240 237 243 245 250 255 260 264 269 276 280 282 285 288 286 283 276 269 265 260 259 260 260 258 258 258 260 260 255 254 252 246 246 248 247 246 256 256 259 267
231 230 229 229 226 231 238 242 248 255 259 265 270 276 280 284 286 285 284 281 274 272 268 267 265 263 262 263 264 262 260 263 254 257 253 248 241 248 246 257 250 255 260 265
225 220 221 219 225 233 243 247 253 258 264 270 276 281 283 288 290 288 284 279 276 273 268 267 267 266 266 267 264 261 262 258 254 250 249 250 246 245 246 252 252 255 262 264
225 221 230 229 234 244 248 254 261 267 273 277 281 285 286 290 289 289 285 282 278 274 269 266 267 267 267 266 264 263 259 254 249 246 246 250 241 243 246 247 250 258 262 265